Spitfire Channel Observation History
Time Wind Speed Temp Pressure Rel. Hum Rain
03/07:00am WSW 13-16 kts n/a n/a n/a n/a
03/06:30am WSW 15-18 kts n/a n/a n/a n/a
03/06:00am WSW 13-16 kts n/a n/a n/a n/a
03/05:30am WSW 12-16 kts n/a n/a n/a n/a
03/05:00am WSW 13-17 kts n/a n/a n/a n/a
03/04:30am WSW 11-14 kts n/a n/a n/a n/a
03/04:00am WSW 13-15 kts n/a n/a n/a n/a
03/03:30am WSW 14-16 kts n/a n/a n/a n/a
03/03:00am WSW 10-12 kts n/a n/a n/a n/a
03/02:30am WSW 9-11 kts n/a n/a n/a n/a
03/02:00am WSW 11-13 kts n/a n/a n/a n/a
03/01:30am WSW 13-15 kts n/a n/a n/a n/a
03/01:00am WSW 11-13 kts n/a n/a n/a n/a
03/12:30am WSW 14-17 kts n/a n/a n/a n/a
03/12:00am WSW 15-19 kts n/a n/a n/a n/a
Time Wind Speed Temp Pressure Rel. Hum Rain
02/11:30pm WSW 14-18 kts n/a n/a n/a n/a
02/11:00pm WSW 18-22 kts n/a n/a n/a n/a
02/10:30pm WSW 17-21 kts n/a n/a n/a n/a
02/10:00pm WSW 18-23 kts n/a n/a n/a n/a
02/09:30pm WSW 16-21 kts n/a n/a n/a n/a
02/09:00pm WSW 19-22 kts n/a n/a n/a n/a
02/08:30pm WSW 18-24 kts n/a n/a n/a n/a
02/08:00pm WSW 14-19 kts n/a n/a n/a n/a
02/07:30pm WSW 16-18 kts n/a n/a n/a n/a
02/07:00pm WSW 12-15 kts n/a n/a n/a n/a
02/06:30pm WSW 15-19 kts n/a n/a n/a n/a
02/06:00pm WSW 9-12 kts n/a n/a n/a n/a
02/05:30pm SW 15-18 kts n/a n/a n/a n/a
02/05:00pm SW 10-13 kts n/a n/a n/a n/a
02/04:30pm WSW 11-13 kts n/a n/a n/a n/a
02/04:00pm SW 13-16 kts n/a n/a n/a n/a
02/03:30pm WSW 11-17 kts n/a n/a n/a n/a
02/03:00pm SW 14-18 kts n/a n/a n/a n/a
02/02:30pm SW 14-20 kts n/a n/a n/a n/a
02/02:00pm SW 15-21 kts n/a n/a n/a n/a
02/01:30pm SW 16-21 kts n/a n/a n/a n/a
02/01:00pm SW 17-21 kts n/a n/a n/a n/a
02/12:30pm SW 19-23 kts n/a n/a n/a n/a
02/12:00pm SW 20-24 kts n/a n/a n/a n/a
02/11:30am SW 19-26 kts n/a n/a n/a n/a
02/11:00am SW 16-21 kts n/a n/a n/a n/a
02/10:30am SW 22-28 kts n/a n/a n/a n/a
02/10:00am SW 24-30 kts n/a n/a n/a n/a
02/09:30am WSW 19-24 kts n/a n/a n/a n/a
02/09:00am SW 19-27 kts n/a n/a n/a n/a
02/08:30am WSW 19-26 kts n/a n/a n/a n/a
02/08:00am WSW 15-19 kts n/a n/a n/a n/a
02/07:30am WSW 19-23 kts n/a n/a n/a n/a
02/07:00am WSW 21-25 kts n/a n/a n/a n/a
02/06:30am WSW 16-20 kts n/a n/a n/a n/a
02/06:00am WSW 16-21 kts n/a n/a n/a n/a
02/05:30am WSW 14-20 kts n/a n/a n/a n/a
02/05:00am WSW 13-16 kts n/a n/a n/a n/a
02/04:30am WSW 10-11 kts n/a n/a n/a n/a
02/04:00am WSW 9-11 kts n/a n/a n/a n/a
02/03:30am WSW 11-14 kts n/a n/a n/a n/a
02/03:00am W 12-14 kts n/a n/a n/a n/a
02/02:30am WNW 13-16 kts n/a n/a n/a n/a
02/02:00am NW 15-17 kts n/a n/a n/a n/a
02/01:30am NW 14-19 kts n/a n/a n/a n/a
02/01:00am NW 10-15 kts n/a n/a n/a n/a
02/12:30am NW 11-18 kts n/a n/a n/a n/a
02/12:00am NNW 16-20 kts n/a n/a n/a n/a
Time Wind Speed Temp Pressure Rel. Hum Rain
01/11:30pm NNW 17-21 kts n/a n/a n/a n/a
01/11:00pm NNW 20-23 kts n/a n/a n/a n/a
01/10:30pm NNW 18-22 kts n/a n/a n/a n/a
01/10:00pm NNW 17-21 kts n/a n/a n/a n/a
01/09:30pm NNW 19-23 kts n/a n/a n/a n/a
01/09:00pm NNW 20-27 kts n/a n/a n/a n/a
01/08:30pm NNW 19-23 kts n/a n/a n/a n/a
01/08:00pm NNW 19-22 kts n/a n/a n/a n/a
01/07:30pm NNW 19-22 kts n/a n/a n/a n/a
01/07:00pm NNW 18-22 kts n/a n/a n/a n/a
01/06:30pm NNW 18-21 kts n/a n/a n/a n/a
01/06:00pm NNW 18-22 kts n/a n/a n/a n/a
01/05:30pm N 17-21 kts n/a n/a n/a n/a
01/05:00pm N 17-20 kts n/a n/a n/a n/a
01/04:30pm N 16-19 kts n/a n/a n/a n/a
01/04:00pm N 14-17 kts n/a n/a n/a n/a
01/03:30pm N 14-16 kts n/a n/a n/a n/a
01/03:00pm N 12-15 kts n/a n/a n/a n/a
01/02:30pm N 13-15 kts n/a n/a n/a n/a
01/02:00pm N 11-14 kts n/a n/a n/a n/a
01/01:30pm N 11-13 kts n/a n/a n/a n/a
01/01:00pm N 9-11 kts n/a n/a n/a n/a
01/12:30pm N 8-9 kts n/a n/a n/a n/a
01/12:00pm N 7-8 kts n/a n/a n/a n/a
01/11:30am N 4-5 kts n/a n/a n/a n/a
01/11:00am CALM 0 kts n/a n/a n/a n/a
01/10:30am CALM 0 kts n/a n/a n/a n/a
01/10:00am CALM 0 kts n/a n/a n/a n/a
01/09:30am CALM 0 kts n/a n/a n/a n/a
01/09:00am SSW 1 kts n/a n/a n/a n/a
01/08:30am S 3 kts n/a n/a n/a n/a
01/08:00am SSW 5-6 kts n/a n/a n/a n/a
01/07:30am SSW 3-4 kts n/a n/a n/a n/a
01/07:00am S 2 kts n/a n/a n/a n/a
01/06:30am SSW 4 kts n/a n/a n/a n/a
01/06:00am S 3-4 kts n/a n/a n/a n/a
01/05:30am SSW 4-5 kts n/a n/a n/a n/a
01/05:00am SSW 3-4 kts n/a n/a n/a n/a
01/04:30am SSW 4-5 kts n/a n/a n/a n/a
01/04:00am SSW 5 kts n/a n/a n/a n/a
01/03:30am S 5 kts n/a n/a n/a n/a
01/03:00am SSW 4-5 kts n/a n/a n/a n/a
01/02:30am SSW 4 kts n/a n/a n/a n/a
01/02:00am SW 5-6 kts n/a n/a n/a n/a
01/01:30am WSW 5 kts n/a n/a n/a n/a
01/01:00am WSW 5-6 kts n/a n/a n/a n/a
01/12:30am WSW 6-7 kts n/a n/a n/a n/a
01/12:00am SW 5-6 kts n/a n/a n/a n/a